CZ-4 DEB, 26338

Orbit data source: Space-Track

CZ-4 DEB, 26338 is space debris in SSO originally from a launch on Thu, 14 Oct 1999 UTC launched from the Taiyaun Space Center, China (TSC). Debris objects in space refer to the collection of defunct objects orbiting the Earth. Examples of debris include non-operational satellites, rocket bodies, and fragments generated from explosions, collisions, or faulty payload assembly.

Loading next visibility...
Identifier
26338, 1999-057HX
Orbit
SSO
Country
Flag of CNCN / PRC
Related business
Manufacturer
Unknown
Mission
Spacecraft
Bus & Motor
Unknown
Mass
Unknown
Launch date (UTC)
1999-10-14 (26 years ago)
Launch vehicle
Unknown
Launch site
Taiyaun Space Center, China (TSC)
Object type
Payload
Rocket body
Debris
Shape & HBR
Unknown shape, 0.5 m
Radar Cross Section
Medium (>0.1 m² and <1 m²)

Expand to show TLE details & history
Last TLE update: 6 hours ago

TLE from 6 hours ago
0 CZ-4 DEB
1 26338U 99057HX  26036.98881437  .00000666  00000-0  21677-3 0  9991
2 26338  98.7121  86.2249 0089448 193.9673 238.9807 14.39875642357588
Epoch: 2026-02-05T23:43Z
TLE epoch observation values (Epoch: 2026-02-05T23:43:53.561Z)
Latitude
70.20969°
Longitude
-70.94363°
Altitude
804.33 km
Speed
7.44 km/s
True Right ascension
04h 04m 39s
True Declination
70° 06' 02"
Sunlit
Object was in daylight at epoch
Visualization orbit readout
Latitude
Unknown
Longitude
Unknown
Altitude
Unknown
Speed
Unknown
Apparent Right ascension
Unknown
Apparent Declination
Unknown
Sunlit
N/A
Visualization observer readout
Local Sidereal Time
07:38:43
Azimuth
Unknown
Elevation
Unknown
Doppler factor
Unknown
Orbital elements
Apogee altitude
819.855 km
Perigee altitude
692.227 km
Semi-major axis
7,134.178 km
Eccentricity
0.00894
Inclination
98.7121°
RAAN
86.2249°
Arg. of periapsis
193.9673°
True anomaly
238.10735°
Mean anomaly
238.9807°
Eccentric anomaly
238.54352°
Mean motion
3.60186 °/min
Orbital period
99.95 mins
BSTAR
0.00021677
Loading maneuver chart data...
Computing Atmospheric mass density...
Loading historical data...
Loading historical data...
Loading historical data...
Loading historical data...
Loading historical data...
Loading historical data...
Loading historical data...

Documentation

Showing up to 5 results
|